#timestamp,LO_Frequency,Hit 
1501084815.3,286046993.6,N
1501084835.1,286046994.9,N
1501084855.9,286047000.5,N
1501084875.7,286047002.1,N
1501084895.5,286046998.2,N
1501084915.4,286046996.7,N
1501084935.2,286046998.4,N
1501084955.0,286047001.2,N
1501084955.9,286047001.2,N
1501084975.8,286046996.5,N
1501084995.6,286046993.8,N
1501085015.4,286046996.0,N
1501085035.2,286046997.1,N
1501085055.1,286046999.0,N
1501085056.0,286046999.0,N
1501085075.8,286046998.1,N
1501085095.6,286046998.5,N
1501085115.5,286046998.2,N
1501085135.3,286047000.7,N
1501085155.1,286046999.9,N
1501085175.9,286047004.1,N
1501085195.7,286046999.7,N
1501085215.5,286047000.4,N
1501085235.4,286047002.8,N
1501085255.2,286047000.1,N
1501085275.0,286047000.7,N
1501085275.9,286047000.7,N
1501085295.8,286046998.9,N
1501085315.6,286046999.4,N
1501085335.4,286046997.6,N
1501085355.2,286046995.6,N
1501085375.1,286046995.1,N
1501085376.0,286046995.1,N
1501085395.8,286046997.1,N
1501085415.6,286046997.5,N
1501085435.5,286046995.4,N
1501085455.3,286046999.5,N
1501085475.1,286046998.9,N
1501085495.9,286046998.8,N
1501085515.7,286046995.2,N
1501085535.5,286046994.5,N
1501085555.4,286046996.3,N
1501085575.2,286046995.6,N
1501085595.0,286046991.9,N
1501085595.9,286046991.9,N
1501085615.7,286046992.1,N
1501085635.6,286046991.9,N
1501085655.4,286046994.7,N
1501085675.2,286046996.0,N
1501085695.1,286046997.8,N
1501085696.0,286046997.8,N
1501085715.8,286046995.8,N
1501085735.6,286046993.6,N
1501085755.5,286046996.1,N
1501085775.3,286046995.4,N
1501085795.1,286046997.4,N
1501085815.9,286046997.4,N
1501085835.7,286046996.8,N
1501085855.5,286046996.8,N
1501085875.3,286046994.4,N
1501085895.2,286046994.5,N
1501085915.0,286046996.4,N
1501085915.9,286046996.4,N
1501085935.7,286046995.4,N
1501085955.6,286046995.1,N
1501085975.4,286046999.0,N
1501085995.2,286046999.8,N
1501086015.1,286047000.6,N
1501086016.0,286047000.6,N
1501086035.8,286046998.9,N
1501086055.6,286046998.5,N
1501086075.5,286047000.6,N
1501086095.3,286046999.2,N
1501086115.1,286046994.1,N
1501086135.9,286046992.1,N
1501086155.7,286046993.8,N
1501086175.5,286046992.2,N
1501086195.3,286046994.7,N
1501086215.2,286046997.5,N
1501086235.0,286046999.0,N
1501086235.9,286046999.0,N
1501086255.7,286046997.7,N
1501086275.6,286046996.3,N
1501086295.4,286046995.2,N
1501086315.2,286046997.1,N
1501086335.1,286046999.1,N
1501086336.0,286046999.1,N
1501086355.8,286046996.7,N
1501086375.6,286046993.8,N
1501086395.5,286046994.1,N
1501086415.3,286046995.9,N
1501086435.1,286046996.4,N
1501086455.8,286046994.7,N
1501086475.7,286046992.3,N
1501086495.5,286046993.8,N
1501086515.3,286046996.6,N
1501086535.2,286046996.7,N
1501086555.9,286046996.0,N
1501086575.7,286046996.1,N
1501086595.6,286046993.6,N
1501086615.4,286046997.1,N
1501086635.2,286047001.2,N
1501086655.0,286047000.7,N
1501086656.0,286047000.7,N
1501086675.8,286046998.8,N
1501086695.6,286046998.7,N
1501086715.4,286046999.8,N
1501086735.3,286047002.0,N
1501086755.1,286046999.3,N
1501086775.8,286046996.9,N
1501086795.7,286046998.7,N
1501086815.5,286047001.6,N
1501086835.3,286047003.9,N
1501086855.2,286047001.4,N
1501086875.9,286047002.4,N
1501086895.7,286047002.5,N
1501086915.5,286047003.5,N
1501086935.4,286047004.0,N
1501086955.2,286047005.6,N
1501086975.0,286047005.7,N
1501086975.9,286047005.7,N
1501086995.8,286047007.6,N
1501087015.6,286047004.1,N
1501087035.4,286047004.3,N
1501087055.3,286047001.8,N
1501087075.1,286047003.6,N
1501087076.0,286047003.6,N
1501087095.8,286047005.3,N
1501087115.7,286047007.4,N
1501087135.5,286047003.1,N
1501087155.3,286047002.3,N
1501087175.1,286047002.6,N
1501087195.9,286046998.1,N
1501087215.7,286046997.1,N
1501087235.5,286046999.0,N
1501087255.4,286046999.1,N
1501087275.2,286046996.8,N
1501087295.0,286047000.3,N
1501087295.9,286047000.3,N
1501087315.8,286046999.5,N
1501087335.6,286046998.8,N
1501087355.4,286046999.2,N
1501087375.3,286047001.0,N
1501087395.1,286047002.3,N
1501087396.0,286047002.3,N
1501087415.8,286047000.3,N
1501087435.6,286047000.5,N
1501087455.5,286046998.8,N
1501087475.3,286046996.5,N
1501087495.1,286046998.9,N
1501087515.9,286046997.2,N
1501087535.7,286046995.0,N
1501087555.5,286046997.3,N
1501087575.4,286046996.1,N
1501087595.2,286046999.6,N
1501087615.0,286046998.6,N
1501087615.9,286046998.6,N
1501087635.8,286046996.6,N
1501087655.6,286046997.8,N
1501087675.4,286046996.4,N
1501087695.3,286046994.9,N
1501087715.1,286046995.2,N
1501087716.0,286046995.2,N
1501087735.8,286046995.7,N
1501087755.6,286046993.8,N
1501087775.5,286046994.2,N
1501087795.3,286046996.3,N
1501087815.1,286046997.7,N
1501087835.9,286046995.4,N
1501087855.7,286046998.7,N
1501087875.5,286047000.0,N
1501087895.4,286047002.4,N
1501087915.2,286047002.3,N
1501087935.0,286047001.7,N
1501087935.9,286047001.7,N
1501087955.0,286047003.7,N
1501087955.9,286047003.7,N
1501087975.7,286047004.2,N
1501087995.6,286047004.5,N
1501088015.4,286047004.6,N
1501088035.2,286047004.5,N
1501088055.1,286047004.6,N
1501088056.0,286047004.6,N
1501088075.8,286047007.4,N
1501088095.6,286047005.1,N
1501088115.5,286047004.1,N
1501088135.3,286047001.7,N
1501088155.1,286046999.8,N
1501088175.9,286047000.1,N
1501088195.7,286046999.8,N
1501088215.5,286047001.4,N
1501088235.3,286047004.2,N
1501088255.2,286047005.7,N
1501088275.9,286047005.9,N
1501088295.7,286047004.8,N
1501088315.6,286047003.5,N
1501088335.4,286047003.2,N
1501088355.2,286047004.1,N
1501088375.1,286047003.2,N
1501088376.0,286047003.2,N
1501088395.8,286047003.0,N
